Tracking 19717 objects as of 24-Jun-2019
HD Live streaming from Space Station
objects crossing your sky now

CZ-2C DEB

Track CZ-2C DEB now!
10-day predictions


NORAD ID: 43520
Int'l Code: 2018-054C
Perigee: 471.6 km
Apogee: 482.6 km
Inclination: 35.0 °
Period: 94.0 minutes
Semi major axis: 6848 km
RCS: Unknown
Launch date: June 27, 2018
Source: People's Republic of China (PRC)
Launch site: Xichang Space Center, China (XSC)

Note: This is SATELLITE DEBRIS
aabbcc
Your satellite tracking list
Your tracking list is empty




NASA's NSSDC Master Catalog

Two Line Element Set (TLE):
1 43520U 18054C   19175.13777654  .00003174  00000-0  10140-3 0  9999
2 43520  34.9972 160.6822 0007983  10.6274 349.4611 15.31960094 55480
Source of the keplerian elements: AFSPC